KINEIS-4A

Last updated on Mon Sep 21 2026 00:02:54 GMT+0000 (Coordinated Universal Time)

1 63303U 25056D 26263.58213723 .00000953 00000+0 15842-3 0 9992 2 63303 97.9213 25.1183 0001590 30.2512 329.8787 14.72296907 81163
UTC large
Height (km)
Speed (km/s)
/
Latitude / Longitude
Inclination (degrees)
Orbital Period (minutes)
Azimuth
Elevation
Range (km)
Doppler Factor

Next 0 passes for location: London (51.5072 / 0.1276)

No passes found over London.
KINEIS-4A